QPF
0.03 0.03 0.05 0.05 0.04 0.03 0.03 0.03 0.02 0.02 0.02 0.02 0.02 0.03 0.03 0.02 0.02 0.03 0.03 0.04 0.05 0.06 0.07 0.05 0.05 0.04 0.04 0.05 0.07 0.07 0.06 0.05 0.07 0.10 0.11 0.12 0.12 0.09 0.07 0.07 0.05 0.03 0.03
0.01 0.02 0.04 0.05 0.04 0.02 0.01 0.02 0.02 0.01 0.01 0.01 0.02 0.03 0.03 0.03 0.03 0.03 0.03 0.04 0.06 0.06 0.04 0.04 0.04 0.04 0.04 0.04 0.06 0.06 0.06 0.06 0.08 0.10 0.09 0.10 0.10 0.08 0.07 0.07 0.06 0.04 0.05
0.00 0.01 0.02 0.03 0.02 0.01 0.01 0.01 0.01 0.01 0.01 0.01 0.01 0.01 0.01 0.02 0.02 0.02 0.03 0.04 0.06 0.05 0.04 0.04 0.04 0.04 0.03 0.03 0.04 0.06 0.07 0.07 0.08 0.10 0.10 0.10 0.09 0.07 0.06 0.06 0.06 0.05 0.06
0.01 0.01 0.01 0.01 0.01 0.01 0.01 0.01 0.01 0.01 0.01 0.01 0.01 0.01 0.01 0.01 0.01 0.01 0.02 0.04 0.06 0.05 0.04 0.06 0.05 0.04 0.03 0.03 0.05 0.07 0.10 0.09 0.07 0.09 0.07 0.09 0.09 0.07 0.08 0.08 0.08 0.06 0.05
0.01 0.01 0.01 0.01 0.01 0.01 0.01 0.01 0.01 0.01 0.01 0.01 0.01 0.01 0.01 0.01 0.01 0.02 0.02 0.04 0.07 0.06 0.05 0.07 0.05 0.04 0.04 0.03 0.04 0.07 0.10 0.09 0.07 0.05 0.06 0.10 0.12 0.09 0.08 0.09 0.06 0.03 0.03
0.00 0.01 0.01 0.01 0.01 0.01 0.01 0.01 0.01 0.01 0.00 0.00 0.00 0.01 0.01 0.01 0.01 0.02 0.02 0.03 0.06 0.07 0.05 0.05 0.05 0.04 0.04 0.04 0.05 0.06 0.06 0.06 0.04 0.03 0.05 0.09 0.09 0.09 0.08 0.10 0.05 0.03 0.03
0.00 0.00 0.00 0.02 0.02 0.01 0.01 0.01 0.01 0.00 0.00 0.00 0.00 0.00 0.01 0.01 0.02 0.03 0.03 0.05 0.06 0.06 0.05 0.05 0.05 0.05 0.04 0.03 0.04 0.05 0.05 0.04 0.03 0.02 0.03 0.06 0.06 0.07 0.10 0.11 0.07 0.04 0.04
0.00 0.00 0.01 0.01 0.02 0.01 0.01 0.02 0.01 0.01 0.01 0.01 0.00 0.01 0.01 0.01 0.02 0.03 0.04 0.05 0.06 0.06 0.06 0.05 0.06 0.05 0.05 0.05 0.06 0.05 0.04 0.03 0.01 0.01 0.01 0.03 0.04 0.05 0.08 0.09 0.09 0.05 0.05
0.00 0.00 0.02 0.02 0.02 0.02 0.03 0.03 0.02 0.02 0.01 0.02 0.01 0.01 0.02 0.02 0.02 0.02 0.05 0.04 0.05 0.04 0.05 0.05 0.04 0.04 0.04 0.05 0.06 0.06 0.06 0.03 0.02 0.02 0.01 0.02 0.02 0.04 0.05 0.06 0.08 0.05 0.05
0.03 0.03 0.02 0.02 0.03 0.04 0.03 0.03 0.02 0.02 0.02 0.02 0.02 0.01 0.01 0.01 0.01 0.02 0.04 0.03 0.03 0.03 0.04 0.05 0.04 0.04 0.05 0.06 0.06 0.07 0.06 0.03 0.03 0.02 0.01 0.01 0.03 0.05 0.05 0.06 0.06 0.05 0.05
0.06 0.07 0.05 0.05 0.06 0.05 0.03 0.03 0.03 0.03 0.02 0.02 0.03 0.02 0.03 0.05 0.03 0.03 0.04 0.02 0.03 0.04 0.07 0.08 0.06 0.06 0.06 0.06 0.07 0.07 0.06 0.03 0.02 0.02 0.03 0.01 0.03 0.05 0.04 0.05 0.06 0.05 0.06
0.05 0.06 0.05 0.06 0.06 0.05 0.03 0.03 0.04 0.04 0.03 0.04 0.05 0.03 0.03 0.04 0.04 0.02 0.03 0.03 0.04 0.06 0.07 0.08 0.06 0.04 0.04 0.05 0.07 0.06 0.06 0.03 0.01 0.01 0.02 0.02 0.03 0.04 0.04 0.06 0.06 0.05 0.05
0.04 0.04 0.06 0.05 0.05 0.06 0.05 0.04 0.04 0.03 0.04 0.04 0.04 0.03 0.02 0.02 0.02 0.02 0.05 0.05 0.06 0.05 0.06 0.04 0.04 0.03 0.03 0.07 0.06 0.04 0.04 0.03 0.02 0.02 0.03 0.03 0.06 0.06 0.04 0.05 0.06 0.07 0.05
0.04 0.04 0.05 0.04 0.04 0.07 0.07 0.05 0.03 0.02 0.02 0.03 0.04 0.03 0.02 0.02 0.02 0.03 0.04 0.04 0.05 0.06 0.07 0.05 0.07 0.06 0.04 0.03 0.04 0.04 0.03 0.03 0.03 0.04 0.05 0.03 0.06 0.06 0.04 0.04 0.04 0.06 0.06
0.03 0.03 0.05 0.06 0.05 0.07 0.07 0.06 0.03 0.02 0.02 0.02 0.03 0.03 0.02 0.02 0.02 0.02 0.03 0.03 0.02 0.02 0.03 0.04 0.04 0.05 0.05 0.04 0.03 0.03 0.04 0.04 0.03 0.04 0.05 0.04 0.04 0.05 0.05 0.05 0.05 0.05 0.06
0.03 0.03 0.04 0.05 0.06 0.06 0.05 0.05 0.03 0.02 0.02 0.02 0.03 0.02 0.02 0.03 0.03 0.03 0.03 0.04 0.03 0.03 0.02 0.03 0.04 0.06 0.07 0.06 0.04 0.03 0.04 0.03 0.03 0.06 0.07 0.06 0.04 0.04 0.05 0.05 0.06 0.06 0.05
0.04 0.03 0.03 0.04 0.06 0.06 0.05 0.06 0.03 0.03 0.02 0.02 0.03 0.03 0.03 0.03 0.03 0.03 0.05 0.05 0.04 0.05 0.05 0.05 0.05 0.05 0.06 0.06 0.06 0.07 0.06 0.06 0.04 0.05 0.07 0.08 0.05 0.04 0.04 0.05 0.06 0.06 0.05
0.04 0.03 0.04 0.05 0.04 0.04 0.05 0.05 0.05 0.03 0.02 0.03 0.04 0.04 0.04 0.03 0.03 0.03 0.05 0.05 0.05 0.04 0.05 0.07 0.06 0.06 0.08 0.08 0.10 0.10 0.08 0.08 0.06 0.06 0.06 0.09 0.08 0.05 0.05 0.05 0.05 0.05 0.06
0.04 0.03 0.03 0.04 0.05 0.04 0.04 0.06 0.06 0.04 0.03 0.03 0.05 0.07 0.06 0.04 0.03 0.03 0.05 0.06 0.05 0.06 0.06 0.04 0.05 0.07 0.10 0.10 0.08 0.09 0.08 0.09 0.08 0.06 0.07 0.07 0.08 0.06 0.07 0.06 0.04 0.05 0.06
0.03 0.04 0.05 0.07 0.09 0.08 0.06 0.06 0.07 0.05 0.04 0.04 0.05 0.07 0.08 0.06 0.05 0.05 0.05 0.04 0.04 0.09 0.09 0.08 0.09 0.08 0.09 0.11 0.08 0.08 0.08 0.08 0.09 0.08 0.06 0.06 0.07 0.05 0.05 0.06 0.06 0.05 0.04
0.02 0.04 0.07 0.10 0.13 0.10 0.09 0.09 0.07 0.05 0.05 0.05 0.05 0.06 0.08 0.07 0.07 0.08 0.05 0.05 0.06 0.09 0.09 0.08 0.09 0.08 0.08 0.09 0.12 0.13 0.10 0.07 0.06 0.06 0.07 0.07 0.06 0.06 0.06 0.06 0.08 0.09 0.07
0.03 0.05 0.07 0.09 0.14 0.13 0.12 0.13 0.10 0.07 0.07 0.08 0.08 0.09 0.08 0.08 0.09 0.08 0.08 0.06 0.07 0.10 0.11 0.10 0.11 0.10 0.08 0.08 0.12 0.16 0.12 0.11 0.08 0.04 0.06 0.07 0.06 0.08 0.09 0.06 0.08 0.09 0.09
0.04 0.05 0.06 0.07 0.12 0.12 0.14 0.16 0.15 0.12 0.10 0.08 0.09 0.10 0.08 0.07 0.09 0.10 0.09 0.07 0.08 0.07 0.10 0.11 0.12 0.12 0.12 0.09 0.08 0.11 0.10 0.09 0.08 0.05 0.04 0.03 0.03 0.05 0.06 0.06 0.05 0.07 0.06
0.02 0.03 0.05 0.05 0.08 0.12 0.12 0.14 0.17 0.18 0.14 0.10 0.10 0.11 0.11 0.11 0.10 0.10 0.09 0.10 0.11 0.08 0.09 0.08 0.09 0.11 0.11 0.10 0.08 0.07 0.07 0.06 0.07 0.06 0.04 0.02 0.03 0.03 0.04 0.04 0.05 0.06 0.04
0.02 0.02 0.04 0.05 0.06 0.10 0.10 0.14 0.16 0.19 0.16 0.10 0.10 0.13 0.14 0.13 0.10 0.10 0.10 0.10 0.08 0.07 0.08 0.09 0.11 0.10 0.09 0.09 0.09 0.08 0.07 0.07 0.05 0.08 0.07 0.05 0.04 0.03 0.03 0.04 0.05 0.04 0.03
0.01 0.01 0.02 0.03 0.04 0.06 0.08 0.10 0.11 0.13 0.13 0.12 0.09 0.09 0.11 0.11 0.11 0.09 0.09 0.08 0.07 0.06 0.08 0.10 0.11 0.12 0.10 0.10 0.09 0.08 0.07 0.07 0.07 0.08 0.07 0.06 0.06 0.04 0.02 0.03 0.03 0.03 0.04
MSLP
1013.68 1013.84 1014.10 1014.46 1014.84 1015.20 1015.48 1015.65 1015.74 1015.76 1015.76 1015.81 1015.93 1016.14 1016.43 1016.76 1017.07 1017.33 1017.49 1017.55 1017.53 1017.46 1017.39 1017.35 1017.36 1017.45 1017.58 1017.74 1017.90 1018.04 1018.15 1018.23 1018.29 1018.37 1018.48 1018.62 1018.79 1019.00 1019.22 1019.44 1019.65 1019.83 1020.00
1013.63 1013.89 1014.26 1014.71 1015.16 1015.57 1015.86 1016.03 1016.08 1016.05 1016.00 1016.00 1016.09 1016.29 1016.58 1016.92 1017.25 1017.51 1017.67 1017.72 1017.68 1017.59 1017.49 1017.44 1017.46 1017.56 1017.72 1017.91 1018.09 1018.26 1018.39 1018.48 1018.57 1018.66 1018.78 1018.95 1019.15 1019.38 1019.62 1019.85 1020.06 1020.25 1020.41
1013.62 1013.96 1014.41 1014.92 1015.44 1015.89 1016.22 1016.40 1016.44 1016.39 1016.32 1016.29 1016.35 1016.53 1016.79 1017.10 1017.41 1017.65 1017.79 1017.81 1017.75 1017.65 1017.57 1017.53 1017.58 1017.70 1017.89 1018.11 1018.31 1018.49 1018.62 1018.72 1018.80 1018.90 1019.04 1019.23 1019.45 1019.70 1019.96 1020.20 1020.42 1020.61 1020.77
1013.63 1014.01 1014.51 1015.07 1015.64 1016.13 1016.51 1016.72 1016.79 1016.76 1016.69 1016.65 1016.69 1016.83 1017.05 1017.32 1017.57 1017.77 1017.86 1017.87 1017.81 1017.73 1017.67 1017.67 1017.76 1017.93 1018.14 1018.37 1018.57 1018.73 1018.85 1018.93 1019.00 1019.11 1019.25 1019.46 1019.70 1019.98 1020.25 1020.51 1020.73 1020.92 1021.08
1013.64 1014.04 1014.56 1015.15 1015.76 1016.29 1016.71 1016.97 1017.09 1017.09 1017.05 1017.02 1017.05 1017.16 1017.33 1017.54 1017.74 1017.89 1017.95 1017.95 1017.90 1017.85 1017.84 1017.91 1018.05 1018.25 1018.48 1018.70 1018.88 1019.01 1019.08 1019.12 1019.18 1019.28 1019.43 1019.66 1019.93 1020.23 1020.53 1020.80 1021.02 1021.21 1021.37
1013.65 1014.05 1014.57 1015.17 1015.79 1016.36 1016.82 1017.13 1017.30 1017.36 1017.35 1017.34 1017.37 1017.46 1017.60 1017.77 1017.91 1018.02 1018.07 1018.07 1018.05 1018.05 1018.11 1018.23 1018.43 1018.66 1018.89 1019.09 1019.22 1019.29 1019.30 1019.30 1019.33 1019.42 1019.60 1019.85 1020.16 1020.49 1020.80 1021.09 1021.32 1021.50 1021.67
1013.68 1014.06 1014.56 1015.15 1015.77 1016.35 1016.83 1017.18 1017.40 1017.50 1017.54 1017.56 1017.60 1017.69 1017.81 1017.95 1018.07 1018.16 1018.21 1018.24 1018.26 1018.33 1018.45 1018.63 1018.86 1019.11 1019.33 1019.49 1019.56 1019.56 1019.51 1019.47 1019.48 1019.57 1019.77 1020.05 1020.40 1020.77 1021.11 1021.40 1021.63 1021.81 1021.97
1013.77 1014.10 1014.57 1015.12 1015.72 1016.29 1016.77 1017.14 1017.38 1017.52 1017.59 1017.65 1017.72 1017.82 1017.94 1018.08 1018.21 1018.30 1018.37 1018.44 1018.52 1018.64 1018.82 1019.05 1019.31 1019.56 1019.75 1019.85 1019.86 1019.80 1019.70 1019.62 1019.61 1019.72 1019.96 1020.29 1020.68 1021.08 1021.45 1021.75 1021.97 1022.14 1022.28
1013.92 1014.22 1014.63 1015.15 1015.70 1016.23 1016.69 1017.04 1017.28 1017.43 1017.53 1017.60 1017.71 1017.83 1017.99 1018.15 1018.30 1018.43 1018.53 1018.64 1018.77 1018.95 1019.17 1019.43 1019.70 1019.93 1020.09 1020.14 1020.10 1019.98 1019.84 1019.75 1019.75 1019.89 1020.17 1020.55 1020.99 1021.43 1021.81 1022.12 1022.33 1022.47 1022.58
1014.15 1014.41 1014.78 1015.24 1015.74 1016.21 1016.62 1016.92 1017.14 1017.27 1017.37 1017.48 1017.60 1017.77 1017.96 1018.16 1018.36 1018.53 1018.68 1018.83 1019.01 1019.21 1019.46 1019.72 1019.98 1020.19 1020.31 1020.33 1020.25 1020.10 1019.96 1019.87 1019.90 1020.08 1020.40 1020.83 1021.32 1021.79 1022.19 1022.49 1022.68 1022.79 1022.87
1014.44 1014.68 1015.02 1015.43 1015.86 1016.26 1016.60 1016.84 1017.01 1017.11 1017.20 1017.31 1017.47 1017.67 1017.91 1018.16 1018.40 1018.62 1018.81 1019.00 1019.19 1019.41 1019.65 1019.91 1020.15 1020.33 1020.42 1020.42 1020.32 1020.18 1020.04 1019.98 1020.05 1020.27 1020.64 1021.12 1021.63 1022.12 1022.53 1022.82 1023.00 1023.08 1023.12
1014.76 1014.99 1015.31 1015.68 1016.06 1016.40 1016.65 1016.83 1016.93 1017.00 1017.07 1017.17 1017.35 1017.58 1017.86 1018.16 1018.45 1018.71 1018.93 1019.14 1019.33 1019.54 1019.77 1020.00 1020.21 1020.36 1020.44 1020.42 1020.34 1020.22 1020.12 1020.10 1020.21 1020.47 1020.87 1021.37 1021.91 1022.41 1022.81 1023.09 1023.25 1023.32 1023.33
1015.05 1015.30 1015.62 1015.97 1016.31 1016.59 1016.79 1016.90 1016.94 1016.96 1017.01 1017.11 1017.29 1017.55 1017.86 1018.20 1018.52 1018.81 1019.05 1019.25 1019.44 1019.62 1019.81 1020.01 1020.19 1020.32 1020.39 1020.39 1020.33 1020.25 1020.20 1020.22 1020.36 1020.65 1021.07 1021.58 1022.11 1022.60 1023.00 1023.28 1023.43 1023.49 1023.50
1015.26 1015.56 1015.90 1016.25 1016.57 1016.82 1016.97 1017.04 1017.04 1017.02 1017.03 1017.12 1017.31 1017.58 1017.92 1018.27 1018.62 1018.92 1019.16 1019.36 1019.52 1019.67 1019.83 1019.99 1020.14 1020.26 1020.34 1020.36 1020.34 1020.30 1020.29 1020.35 1020.52 1020.81 1021.22 1021.71 1022.21 1022.69 1023.08 1023.35 1023.51 1023.59 1023.61
1015.38 1015.72 1016.10 1016.48 1016.80 1017.04 1017.17 1017.21 1017.19 1017.14 1017.14 1017.22 1017.40 1017.67 1018.01 1018.38 1018.73 1019.03 1019.27 1019.45 1019.59 1019.71 1019.83 1019.96 1020.09 1020.21 1020.30 1020.36 1020.38 1020.38 1020.40 1020.48 1020.65 1020.93 1021.31 1021.75 1022.21 1022.66 1023.03 1023.32 1023.50 1023.61 1023.68
1015.36 1015.77 1016.19 1016.60 1016.95 1017.21 1017.35 1017.38 1017.36 1017.31 1017.30 1017.36 1017.53 1017.80 1018.12 1018.48 1018.83 1019.12 1019.36 1019.53 1019.65 1019.75 1019.85 1019.97 1020.09 1020.21 1020.32 1020.40 1020.45 1020.49 1020.54 1020.62 1020.77 1021.00 1021.32 1021.70 1022.11 1022.51 1022.87 1023.17 1023.39 1023.56 1023.68
1015.24 1015.70 1016.17 1016.62 1017.00 1017.29 1017.46 1017.52 1017.51 1017.48 1017.47 1017.52 1017.67 1017.91 1018.22 1018.56 1018.89 1019.18 1019.40 1019.57 1019.69 1019.79 1019.89 1020.00 1020.13 1020.26 1020.39 1020.49 1020.57 1020.63 1020.67 1020.74 1020.85 1021.03 1021.27 1021.58 1021.92 1022.28 1022.62 1022.93 1023.20 1023.42 1023.61
1015.04 1015.54 1016.04 1016.53 1016.95 1017.28 1017.50 1017.60 1017.63 1017.62 1017.62 1017.67 1017.80 1018.01 1018.28 1018.59 1018.89 1019.17 1019.39 1019.57 1019.70 1019.82 1019.93 1020.06 1020.20 1020.35 1020.49 1020.61 1020.71 1020.77 1020.80 1020.84 1020.90 1021.01 1021.17 1021.40 1021.67 1021.98 1022.30 1022.62 1022.92 1023.20 1023.46
1014.80 1015.31 1015.84 1016.36 1016.82 1017.19 1017.46 1017.63 1017.71 1017.73 1017.75 1017.79 1017.90 1018.07 1018.29 1018.56 1018.84 1019.09 1019.32 1019.51 1019.67 1019.82 1019.96 1020.11 1020.28 1020.45 1020.60 1020.74 1020.83 1020.89 1020.91 1020.91 1020.92 1020.96 1021.05 1021.19 1021.40 1021.65 1021.95 1022.26 1022.59 1022.91 1023.22
1014.53 1015.05 1015.59 1016.12 1016.62 1017.04 1017.37 1017.60 1017.74 1017.81 1017.86 1017.90 1017.98 1018.11 1018.28 1018.49 1018.73 1018.97 1019.20 1019.41 1019.60 1019.78 1019.96 1020.15 1020.33 1020.52 1020.69 1020.83 1020.92 1020.97 1020.97 1020.95 1020.91 1020.89 1020.91 1020.98 1021.12 1021.32 1021.58 1021.88 1022.20 1022.54 1022.88
1014.25 1014.77 1015.31 1015.86 1016.38 1016.84 1017.24 1017.54 1017.75 1017.88 1017.96 1018.01 1018.06 1018.14 1018.26 1018.42 1018.61 1018.82 1019.04 1019.26 1019.48 1019.70 1019.92 1020.14 1020.35 1020.55 1020.73 1020.87 1020.96 1021.00 1020.99 1020.94 1020.87 1020.81 1020.77 1020.79 1020.87 1021.01 1021.22 1021.49 1021.80 1022.12 1022.46
1013.97 1014.49 1015.02 1015.57 1016.11 1016.62 1017.07 1017.45 1017.73 1017.93 1018.05 1018.11 1018.15 1018.19 1018.25 1018.35 1018.49 1018.66 1018.87 1019.10 1019.33 1019.58 1019.83 1020.07 1020.30 1020.51 1020.69 1020.83 1020.92 1020.95 1020.94 1020.88 1020.80 1020.71 1020.65 1020.62 1020.65 1020.74 1020.90 1021.12 1021.39 1021.69 1022.00
1013.69 1014.20 1014.72 1015.26 1015.81 1016.36 1016.87 1017.32 1017.68 1017.95 1018.12 1018.21 1018.24 1018.25 1018.26 1018.30 1018.38 1018.52 1018.70 1018.92 1019.16 1019.42 1019.69 1019.94 1020.18 1020.40 1020.57 1020.71 1020.80 1020.83 1020.82 1020.77 1020.69 1020.61 1020.53 1020.49 1020.48 1020.54 1020.65 1020.82 1021.04 1021.29 1021.56
1013.40 1013.90 1014.41 1014.93 1015.49 1016.06 1016.62 1017.13 1017.57 1017.91 1018.14 1018.26 1018.30 1018.29 1018.27 1018.26 1018.29 1018.38 1018.53 1018.73 1018.97 1019.23 1019.50 1019.76 1020.00 1020.20 1020.37 1020.50 1020.59 1020.64 1020.64 1020.61 1020.56 1020.49 1020.43 1020.38 1020.37 1020.40 1020.48 1020.60 1020.77 1020.97 1021.20
1013.12 1013.60 1014.08 1014.59 1015.14 1015.72 1016.31 1016.88 1017.38 1017.79 1018.08 1018.24 1018.30 1018.28 1018.23 1018.19 1018.18 1018.23 1018.35 1018.53 1018.76 1019.01 1019.27 1019.53 1019.75 1019.95 1020.11 1020.23 1020.32 1020.38 1020.41 1020.41 1020.40 1020.37 1020.34 1020.31 1020.31 1020.33 1020.40 1020.50 1020.63 1020.80 1020.99
1012.86 1013.32 1013.77 1014.24 1014.76 1015.33 1015.93 1016.53 1017.09 1017.55 1017.89 1018.09 1018.18 1018.17 1018.12 1018.05 1018.02 1018.05 1018.14 1018.30 1018.52 1018.76 1019.01 1019.25 1019.47 1019.65 1019.80 1019.92 1020.01 1020.08 1020.14 1020.18 1020.21 1020.23 1020.25 1020.27 1020.30 1020.35 1020.42 1020.52 1020.65 1020.80 1020.98
Thickness
5788 5785 5777 5776 5775 5775 5775 5775 5774 5773 5771 5769 5767 5766 5765 5764 5763 5762 5762 5761 5761 5761 5760 5759 5759 5758 5757 5756 5755 5754 5753 5752 5751 5750 5748 5747 5745 5744 5743 5742 5743 5741 5738
5792 5784 5776 5775 5774 5774 5773 5773 5772 5771 5769 5767 5766 5764 5764 5763 5762 5761 5760 5760 5759 5759 5759 5758 5757 5757 5756 5755 5754 5752 5751 5750 5750 5748 5747 5745 5744 5743 5742 5742 5742 5739 5737
5791 5784 5776 5774 5773 5772 5772 5771 5770 5769 5767 5766 5765 5763 5762 5762 5761 5760 5759 5759 5758 5758 5757 5756 5756 5755 5755 5754 5752 5751 5750 5749 5748 5747 5746 5746 5743 5741 5740 5739 5738 5736 5735
5791 5784 5778 5773 5772 5771 5770 5769 5768 5767 5765 5764 5763 5762 5762 5761 5760 5759 5758 5757 5757 5756 5756 5755 5754 5754 5753 5752 5751 5750 5749 5748 5747 5747 5748 5747 5743 5739 5738 5737 5736 5734 5733
5790 5784 5776 5772 5770 5770 5769 5767 5766 5765 5764 5763 5762 5761 5760 5759 5759 5758 5757 5756 5756 5755 5754 5753 5753 5752 5751 5750 5749 5748 5747 5747 5747 5749 5748 5745 5742 5738 5737 5735 5734 5733 5732
5788 5783 5775 5771 5769 5768 5767 5766 5764 5763 5762 5761 5760 5759 5758 5758 5758 5757 5756 5755 5754 5754 5753 5752 5751 5750 5749 5748 5747 5747 5746 5746 5748 5749 5747 5744 5741 5737 5735 5734 5733 5732 5730
5788 5784 5775 5769 5767 5766 5765 5764 5762 5761 5760 5759 5758 5757 5757 5756 5756 5755 5754 5753 5753 5752 5751 5750 5749 5748 5747 5747 5746 5745 5745 5746 5750 5748 5745 5743 5739 5735 5734 5733 5731 5730 5729
5788 5783 5773 5767 5765 5763 5762 5761 5760 5759 5758 5757 5757 5756 5755 5755 5754 5753 5753 5752 5751 5750 5749 5748 5747 5746 5745 5745 5744 5744 5744 5745 5747 5747 5745 5742 5736 5734 5733 5731 5730 5729 5727
5786 5782 5774 5769 5764 5761 5759 5758 5757 5757 5756 5755 5755 5754 5753 5753 5752 5752 5751 5750 5749 5748 5747 5746 5745 5744 5744 5743 5742 5742 5742 5744 5748 5745 5744 5740 5734 5732 5731 5730 5728 5727 5726
5783 5781 5775 5772 5767 5763 5759 5756 5755 5754 5754 5753 5753 5752 5752 5751 5751 5750 5750 5748 5748 5747 5745 5745 5744 5743 5742 5741 5741 5740 5741 5743 5747 5745 5743 5737 5732 5731 5729 5728 5727 5726 5725
5777 5777 5775 5772 5767 5765 5762 5756 5754 5752 5752 5752 5752 5751 5751 5753 5753 5751 5749 5747 5746 5745 5744 5743 5742 5742 5741 5740 5739 5739 5740 5745 5745 5744 5740 5734 5731 5729 5728 5727 5726 5725 5723
5773 5773 5772 5771 5766 5764 5761 5757 5755 5754 5752 5753 5752 5752 5752 5751 5752 5751 5747 5746 5745 5744 5743 5742 5741 5741 5742 5742 5740 5739 5743 5743 5744 5742 5737 5732 5730 5728 5727 5725 5724 5723 5722
5775 5772 5770 5768 5764 5762 5759 5757 5755 5754 5752 5752 5751 5751 5751 5752 5751 5751 5749 5746 5745 5744 5744 5742 5743 5745 5745 5743 5743 5743 5742 5744 5743 5742 5736 5731 5729 5727 5726 5724 5723 5722 5721
5775 5771 5769 5766 5762 5759 5758 5756 5753 5753 5752 5752 5749 5750 5750 5751 5751 5751 5748 5748 5747 5746 5744 5745 5744 5744 5743 5742 5742 5741 5741 5743 5742 5741 5734 5730 5728 5726 5725 5723 5722 5721 5719
5775 5771 5768 5764 5760 5756 5754 5753 5753 5752 5753 5751 5749 5749 5749 5750 5750 5749 5748 5747 5748 5747 5745 5744 5744 5742 5742 5742 5742 5741 5740 5740 5740 5740 5735 5730 5728 5726 5724 5723 5721 5720 5718
5775 5771 5768 5762 5758 5755 5752 5751 5750 5750 5749 5751 5750 5749 5748 5749 5749 5748 5747 5745 5747 5746 5746 5744 5744 5742 5743 5742 5742 5741 5740 5740 5738 5737 5737 5732 5728 5726 5724 5722 5721 5719 5718
5775 5771 5767 5762 5758 5754 5751 5749 5749 5748 5749 5749 5749 5748 5747 5748 5747 5746 5747 5746 5746 5745 5743 5743 5743 5743 5742 5742 5742 5741 5740 5739 5738 5737 5737 5735 5731 5727 5725 5723 5721 5720 5718
5776 5771 5767 5764 5758 5754 5750 5748 5748 5747 5747 5748 5748 5748 5746 5747 5746 5746 5747 5747 5745 5745 5744 5744 5744 5744 5743 5743 5742 5741 5741 5739 5738 5737 5737 5735 5734 5733 5727 5724 5722 5720 5719
5777 5772 5767 5764 5759 5755 5751 5747 5746 5745 5745 5746 5747 5747 5746 5746 5746 5746 5747 5746 5745 5745 5745 5746 5745 5744 5742 5742 5743 5741 5742 5740 5739 5739 5738 5737 5735 5733 5732 5726 5723 5721 5719
5779 5774 5768 5764 5758 5753 5750 5746 5745 5744 5744 5745 5746 5746 5745 5746 5746 5746 5747 5746 5746 5746 5745 5744 5743 5742 5742 5742 5744 5743 5742 5742 5740 5740 5740 5739 5736 5735 5733 5731 5727 5724 5721
5778 5773 5768 5763 5759 5754 5749 5746 5744 5743 5744 5745 5745 5745 5744 5745 5745 5745 5748 5746 5746 5746 5745 5745 5743 5741 5741 5742 5740 5738 5740 5743 5742 5741 5741 5740 5739 5736 5734 5731 5730 5728 5725
5779 5774 5769 5764 5761 5756 5752 5748 5746 5745 5745 5746 5745 5745 5745 5745 5745 5746 5745 5747 5747 5745 5744 5743 5742 5742 5743 5742 5739 5734 5732 5735 5738 5743 5741 5739 5739 5737 5735 5733 5730 5728 5727
5782 5777 5773 5768 5763 5758 5753 5749 5746 5743 5742 5743 5743 5744 5744 5744 5744 5744 5745 5747 5747 5747 5745 5743 5743 5741 5740 5742 5743 5738 5732 5730 5735 5739 5740 5739 5738 5736 5735 5733 5731 5729 5727
5786 5781 5775 5770 5764 5759 5754 5750 5747 5744 5742 5743 5744 5746 5745 5744 5744 5745 5745 5746 5746 5747 5746 5745 5746 5744 5740 5739 5741 5741 5740 5740 5734 5732 5735 5738 5737 5735 5734 5733 5732 5728 5726
5789 5783 5777 5770 5765 5760 5756 5752 5748 5746 5746 5746 5746 5744 5744 5745 5744 5745 5745 5746 5746 5746 5746 5745 5745 5743 5743 5741 5740 5740 5739 5738 5738 5733 5729 5732 5733 5734 5733 5731 5730 5728 5726
5789 5783 5777 5770 5765 5761 5757 5754 5750 5747 5746 5745 5744 5743 5743 5744 5744 5745 5746 5745 5746 5746 5746 5745 5744 5743 5742 5742 5741 5741 5739 5737 5735 5734 5730 5729 5729 5730 5730 5728 5728 5726 5724